Simultaneous Nadir Overpasses (SNOs) Predictions

Prediction of SNOs between GOES-14 and NOAA-20 Satellite Orbit:

Table of predicted SNOs for the next 14.0 days since TLE Epoch: 10/23/2021
Index Date Time (GOES-14) GOES-14 Lat,Lon NOAA-20 Lat,Lon Distance(km) Time Diff (sec)
1 10/23/2021 08:39:04 0.21,-104.31 1.07,-108.16 439.48 80
2 10/24/2021 08:17:39 0.23,-104.29 0.07,-103.63 76.08 80
3 10/26/2021 20:20:49 -0.21,-104.18 -0.28,-104.39 24.37 80
4 10/27/2021 20:04:44 -0.22,-104.18 0.78, -99.86 493.47 80
5 10/29/2021 08:26:32 0.19,-104.31 0.38,-105.13 94.10 80
6 10/30/2021 08:05:06 0.21,-104.29 -0.62,-100.59 421.39 80
7 10/31/2021 20:27:01 -0.17,-104.15 -0.58,-105.89 198.67 80
8 11/01/2021 20:10:56 -0.19,-104.16 0.42,-101.36 319.25 80
9 11/03/2021 08:32:44 0.16,-104.32 0.68,-106.64 264.03 80
10 11/04/2021 08:11:19 0.18,-104.31 -0.32,-102.10 251.63 80
11 11/05/2021 20:33:14 -0.15,-104.13 -0.87,-107.40 372.58 80
